sat.trackr.live / text

‹ back to catalog

YAOGAN-2

NORAD 31490 · 2007-019A

PAYLOAD ACTIVE UNKNOWN

§ Identity

Operator
Country
PRC
Launch date
2007-05-25
Launch site
JSC
Launch vehicle
Mass (kg)
RCS (m²)
3.06

External: N2YO · Heavens-Above · Gunter

§ Orbital elements

Epoch: 2026-05-25T03:25:46.348320Z

Period
97.12 min
Inclination
98.2675°
Eccentricity
0.0020367
Mean motion
14.82634963 rev/d
Perigee alt
606.8 km
Apogee alt
635.3 km
Semi-major
6,999.2 km
B*
9.0812e-5
RAAN
4.9740°
Arg perigee
352.1158°
Mean anomaly
7.9731°
Rev number
2,420

§ Raw data

YAOGAN-21 31490U 07019A   26145.14289755  .00000676  00000+0  90812-4 0  99952 31490  98.2675   4.9740 0020367 352.1158   7.9731 14.82634963 24204

JSON: /api/v1/satellites/31490 · /tle

For live sub-satellite position, see the globe view (requires WebGL).

§ Visibility from observer

Set your observer location to see the next 7 days of passes ≥ 10°. The values pass through the URL so the page stays shareable.

No JS? Fill the form by hand. The geolocation button needs JavaScript.